sat.trackr.live / text

‹ back to catalog

SKYSAT-C8

NORAD 42990 · 2017-068D

PAYLOAD ACTIVE UNKNOWN

§ Identity

Operator
Country
US
Launch date
2017-10-31
Launch site
AFWTR
Launch vehicle
Mass (kg)
RCS (m²)

Purposes: earth_obs

External: N2YO · Heavens-Above · Gunter

§ Orbital elements

Epoch: 2026-09-20T03:13:47.656704Z

Period
93.59 min
Inclination
97.4648°
Eccentricity
0.0001511
Mean motion
15.38629904 rev/d
Perigee alt
449.1 km
Apogee alt
451.2 km
Semi-major
6,828.3 km
B*
2.0708e-4
RAAN
41.2621°
Arg perigee
88.7696°
Mean anomaly
271.3722°
Rev number
49,690

§ Raw data

SKYSAT-C81 42990U 17068D   26263.13457936  .00007815  00000+0  20708-3 0  99932 42990  97.4648  41.2621 0001511  88.7696 271.3722 15.38629904496901

JSON: /api/v1/satellites/42990 · /tle

For live sub-satellite position, see the globe view (requires WebGL).

§ Visibility from observer

Set your observer location to see the next 7 days of passes ≥ 10°. The values pass through the URL so the page stays shareable.

No JS? Fill the form by hand. The geolocation button needs JavaScript.